Regional Weather Roundup
Issued by NWS Kansas City/Pleasant Hill, MO

Home | Current Version | Previous Version | Text Only | Print | Product List | Glossary On
Versions: 1 2 3 4 5 6 7 8 9 10 11 12 13 14 15 16 17 18 19 20 21 22 23 24 25 26 27 28 29 30 31 32 33 34 35 36 37 38 39 40 41 42 43 44 45 46 47 48 49 50
000
ASUS43 KEAX 011511
RWREAX

WEATHER ROUNDUP FOR EASTERN KANSAS AND NORTHWEST MISSOURI
NATIONAL WEATHER SERVICE KANSAS CITY/PLEASANT HILL MO
900 AM CST SUN MAR 01 2015

KSZ040-057-103>105-MOZ028-029-037-043-011600-
...KANSAS CITY METROPOLITAN AREA...

CITY           SKY/WX    TMP DP  RH WIND       PRES   REMARKS
K.C. INTL      PTSUNNY   24  20  84 NW6       30.39R WCI  17
K.C. DOWNTOWN  CLOUDY    26  20  77 N5        30.40R WCI  20
LEES SUMMIT    CLOUDY    24  19  81 N6        30.39R WCI  17
OLATHE - IXD   CLOUDY    23  20  88 N5        30.39R WCI  17
OLATHE - OJC   CLOUDY    24  20  84 N3        30.37R
LAWRENCE       CLOUDY    23  19  85 W3        30.41R

$$

MOZ001>008-011>017-020>025-030>033-038>040-044>046-053-054-011600-
...NORTHERN AND CENTRAL MISSOURI...

CITY           SKY/WX    TMP DP  RH WIND       PRES   REMARKS
ST. JOSEPH     MOSUNNY   22  19  89 NW6       30.41R WCI  14
MOSBY          CLOUDY    27  21  80 NW5       30.41R WCI  21
WARRENSBURG    LGT SNOW  25  21  86 CALM      30.40R
WHITEMAN AFB   LGT SNOW  23  21  91 N3        30.39R FOG
CLINTON        LGT RAIN  27  27 100 NW3       30.40R
SEDALIA        LGT SNOW  24  20  84 NW5       30.40R VSB 1   WCI  18
WARSAW         NOT AVBL
MARSHALL       CLOUDY    25  23  93 NW3       30.39  FOG
CHILLICOTHE      N/A     24  19  81 N3        30.41R
MOBERLY        CLOUDY    25  19  80 CALM      30.39R FOG
KIRKSVILLE     LGT SNOW  22  19  89 CALM      30.38R FOG

$$

MOZ041-047>049-056>058-063>065-088>090-097-011600-
...EASTERN AND SOUTHERN MISSOURI...

CITY           SKY/WX    TMP DP  RH WIND       PRES   REMARKS
ST. LOUIS INTL FRZ DRZL  29  25  85 W5        30.38S FOG     WCI  24
SPIRIT OF STL  LGT SNOW  27  25  92 NW3       30.38S VSB 3/4
COLUMBIA       CLOUDY    26  23  88 NW5       30.37R WCI  20
JEFFERSON CITY CLOUDY    26  24  92 CALM      30.40R FOG
MEXICO         CLOUDY   N/A N/A N/A CALM      30.39R FOG
ROLLA          CLOUDY    26  24  92 W6        30.35R FOG     WCI  19
OSAGE BEACH    CLOUDY    27  25  93 CALM      30.36F
SPRINGFIELD    FOG       28  26  92 NW8       30.35R VSB 1   WCI  20
BRANSON        FOG       32  30  93 CALM      30.36R VSB 1
NEVADA         LGT SNOW  25  23  93 CALM      30.41
JOPLIN         CLOUDY    27  25  92 CALM      30.38S FOG
WEST PLAINS    CLOUDY    31  29  92 CALM      30.34R

$$

IAZ060-094-KSZ022-034>040-054-083-096-NEZ052-066-093-011600-
...KANSAS...SOUTHEAST NEBRASKA AND IOWA...

CITY           SKY/WX    TMP DP  RH WIND       PRES   REMARKS
TOPEKA         CLOUDY    23  19  85 NW5       30.41R WCI  17
MANHATTAN      MOSUNNY   22  19  89 CALM      30.41R
EMPORIA        MOSUNNY   23  19  85 N5        30.37R WCI  17
CHANUTE        CLOUDY    25  21  85 N5        30.39R WCI  19
WICHITA        FRZ RAIN  25  21  85 CALM      30.39R FOG
OMAHA          MOSUNNY   24  15  68 W10       30.38R WCI  14
LINCOLN        PTSUNNY   22  16  78 W7        30.39R WCI  13
FALLS CITY     CLOUDY    23  19  85 W3        30.39R
LAMONI         CLOUDY    22  18  85 W6        30.37R WCI  14
DES MOINES     MOSUNNY   24  15  68 W7        30.37R WCI  16

$$



USA.gov is the U.S. government's official web portal to all federal, state and local government web resources and services.